Volver al catálogo

STARLINK-36945

ActivoComunicacionesVLEO
NORAD 68050·PAYLOAD·🇺🇸 United States

Lanzado Mar 2, 2026 desde Vandenberg Space Force Base

Loading…

Próximos Pases (próximas 24 horas)

TLE

ActualizadoSource: CelesTrak SupGP

Época: Sep 15, 2026, 02:53 UTC

1 68050C 26041L   26258.12062500 -.00034586  00000+0 -10217-2 0  2589
2 68050  53.1580 245.0838 0001369  94.7306 133.0245 15.34410842    12

Sigue STARLINK-36945 en tiempo real con AllMySat

Download on the App Store